ACA1517 EVRA-CYVR

Flight info

Callsign ACA1517
Flight time N/A
Altitude 32000
Route SOKVA DCT BODRI DCT GIKAV/N0484F340 DCT GISOX DCT 71N000E/M082F340 74N010W 76N020W 77N030W 78N040W 78N050W DCT QQ/N0481F360 DCT EMETO DCT MITOV DCT 67N100W 62N110W DCT BISPO/N0467F380 DCT YWL Q800 ELIDI WHSLR8
Aircraft B77L/H-SDE1E2E3FGHIJ2J3J4J5M1RWXY/LB1D1

Departure

Time N/A
Airport Riga International Airport (EVRA)

Arrival

Time 2026-05-03 21:08
Airport Vancouver International Airport (CYVR)
Time Latitude Longitude Altitude Speed Heading
2026-05-03 20:15 53.46011 -120.71078 38128 ft 520 kts 224°
2026-05-03 20:15 53.40220 -120.78246 38056 ft 518 kts 224°
2026-05-03 20:16 53.34407 -120.85389 38063 ft 518 kts 224°
2026-05-03 20:16 53.28579 -120.92508 38107 ft 521 kts 223°
2026-05-03 20:17 53.22720 -120.99652 38111 ft 522 kts 223°
2026-05-03 20:17 53.16834 -121.06814 38114 ft 525 kts 223°
2026-05-03 20:18 53.10921 -121.13983 38110 ft 527 kts 223°
2026-05-03 20:18 53.04974 -121.21159 38121 ft 528 kts 223°
2026-05-03 20:19 52.99061 -121.28274 38099 ft 529 kts 223°
2026-05-03 20:19 52.93096 -121.35429 38110 ft 530 kts 223°
2026-05-03 20:20 52.87113 -121.42591 38101 ft 531 kts 223°
2026-05-03 20:20 52.81159 -121.49675 38113 ft 524 kts 222°
2026-05-03 20:21 52.75336 -121.56832 38115 ft 515 kts 229°
2026-05-03 20:21 52.70328 -121.65134 38116 ft 509 kts 235°
2026-05-03 20:22 52.65562 -121.73759 38107 ft 509 kts 236°
2026-05-03 20:22 52.60814 -121.82441 38121 ft 511 kts 236°
2026-05-03 20:23 52.56049 -121.91166 38126 ft 513 kts 236°
2026-05-03 20:23 52.51315 -121.99855 38129 ft 514 kts 236°
2026-05-03 20:24 52.46548 -122.08605 38124 ft 515 kts 236°
2026-05-03 20:24 52.41773 -122.17379 38123 ft 516 kts 236°
2026-05-03 20:25 52.36998 -122.26162 38121 ft 517 kts 236°
2026-05-03 20:25 52.32218 -122.34937 38130 ft 517 kts 236°
2026-05-03 20:26 52.27440 -122.43715 38107 ft 517 kts 236°
2026-05-03 20:26 52.22666 -122.52506 38113 ft 518 kts 236°
2026-05-03 20:27 52.17891 -122.61318 38107 ft 519 kts 236°
2026-05-03 20:27 52.13120 -122.70153 38065 ft 520 kts 236°
2026-05-03 20:28 52.08353 -122.79002 38096 ft 520 kts 236°
2026-05-03 20:28 52.03600 -122.87845 38087 ft 519 kts 236°
2026-05-03 20:29 51.98848 -122.96669 38115 ft 519 kts 235°
2026-05-03 20:29 51.93379 -123.04439 38090 ft 535 kts 218°
2026-05-03 20:30 51.86581 -123.09590 38102 ft 546 kts 200°
2026-05-03 20:30 51.79051 -123.11565 38098 ft 552 kts 181°
2026-05-03 20:31 51.71432 -123.10157 38110 ft 552 kts 163°
2026-05-03 20:31 51.64391 -123.05517 38097 ft 544 kts 145°
2026-05-03 20:32 51.58244 -122.98556 38109 ft 538 kts 137°
2026-05-03 20:32 51.52370 -122.91090 38114 ft 538 kts 136°
2026-05-03 20:33 51.46523 -122.83585 38107 ft 538 kts 136°
2026-05-03 20:33 51.40567 -122.76345 38087 ft 541 kts 148°
2026-05-03 20:33 51.37028 -122.74228 38120 ft 547 kts 166°
2026-05-03 20:34 51.33248 -122.73617 38106 ft 549 kts 184°
2026-05-03 20:34 51.29508 -122.74649 38096 ft 544 kts 200°
2026-05-03 20:34 51.26007 -122.76856 38123 ft 540 kts 210°
2026-05-03 20:35 51.19443 -122.82647 38118 ft 540 kts 214°
2026-05-03 20:35 51.12859 -122.88464 38128 ft 543 kts 211°
2026-05-03 20:36 51.06138 -122.93854 38133 ft 546 kts 210°
2026-05-03 20:36 51.02682 -122.96545 37899 ft 546 kts 210°
2026-05-03 20:36 50.99287 -122.99193 37619 ft 543 kts 210°
2026-05-03 20:36 50.95958 -123.01805 37045 ft 540 kts 210°
2026-05-03 20:37 50.92588 -123.04459 36257 ft 538 kts 210°
2026-05-03 20:37 50.89247 -123.07018 35829 ft 531 kts 207°
2026-05-03 20:37 50.85843 -123.09238 35307 ft 527 kts 204°
2026-05-03 20:37 50.82451 -123.11338 34734 ft 520 kts 204°
2026-05-03 20:38 50.79097 -123.13394 34315 ft 514 kts 204°
2026-05-03 20:38 50.75772 -123.15430 33711 ft 511 kts 204°
2026-05-03 20:38 50.72478 -123.17457 33188 ft 506 kts 204°
2026-05-03 20:38 50.69216 -123.19474 32680 ft 500 kts 204°
2026-05-03 20:39 50.66002 -123.21472 32189 ft 494 kts 204°
2026-05-03 20:39 50.62816 -123.23456 31692 ft 489 kts 204°
2026-05-03 20:39 50.59666 -123.25413 31219 ft 484 kts 203°
2026-05-03 20:39 50.56553 -123.27347 30751 ft 479 kts 203°
2026-05-03 20:40 50.53468 -123.29260 30256 ft 475 kts 203°
2026-05-03 20:40 50.50407 -123.31153 29703 ft 470 kts 203°
2026-05-03 20:40 50.47380 -123.33019 29155 ft 465 kts 203°
2026-05-03 20:40 50.44391 -123.34860 28656 ft 458 kts 203°
2026-05-03 20:41 50.41438 -123.36675 28204 ft 453 kts 203°
2026-05-03 20:41 50.38525 -123.38463 27704 ft 448 kts 203°
2026-05-03 20:41 50.35634 -123.40235 27234 ft 443 kts 203°
2026-05-03 20:41 50.32782 -123.41983 26779 ft 439 kts 203°
2026-05-03 20:42 50.29953 -123.43714 26311 ft 434 kts 203°
2026-05-03 20:42 50.27148 -123.45431 25861 ft 430 kts 203°
2026-05-03 20:42 50.24380 -123.47124 25411 ft 426 kts 202°
2026-05-03 20:42 50.21626 -123.48803 24973 ft 423 kts 202°
2026-05-03 20:43 50.18895 -123.50468 24533 ft 419 kts 202°
2026-05-03 20:43 50.16186 -123.52116 24090 ft 417 kts 202°
2026-05-03 20:43 50.13489 -123.53755 23636 ft 415 kts 202°
2026-05-03 20:43 50.10805 -123.55385 23116 ft 413 kts 202°
2026-05-03 20:44 50.08141 -123.56998 22667 ft 409 kts 202°
2026-05-03 20:44 50.05494 -123.58602 22218 ft 406 kts 202°
2026-05-03 20:44 50.02878 -123.60182 21787 ft 402 kts 202°
2026-05-03 20:44 50.00284 -123.61749 21340 ft 399 kts 202°
2026-05-03 20:45 49.97717 -123.63323 20914 ft 395 kts 203°
2026-05-03 20:45 49.95169 -123.64896 20501 ft 392 kts 203°
2026-05-03 20:45 49.92678 -123.66435 20089 ft 389 kts 202°
2026-05-03 20:45 49.90173 -123.67976 19635 ft 386 kts 202°
2026-05-03 20:46 49.87688 -123.69505 19231 ft 382 kts 202°
2026-05-03 20:46 49.85225 -123.71017 18814 ft 379 kts 202°
2026-05-03 20:46 49.82774 -123.72422 18376 ft 372 kts 195°
2026-05-03 20:46 49.80223 -123.72769 17924 ft 368 kts 172°
2026-05-03 20:47 49.77753 -123.71937 17585 ft 360 kts 165°
2026-05-03 20:47 49.75329 -123.70988 17333 ft 360 kts 165°
2026-05-03 20:47 49.72885 -123.70076 17110 ft 362 kts 166°
2026-05-03 20:47 49.70439 -123.69187 17050 ft 361 kts 166°
2026-05-03 20:48 49.67985 -123.68304 17011 ft 362 kts 166°
2026-05-03 20:48 49.65532 -123.67427 16985 ft 360 kts 166°
2026-05-03 20:48 49.63124 -123.66572 16893 ft 353 kts 166°
2026-05-03 20:48 49.60746 -123.65727 16340 ft 350 kts 166°
2026-05-03 20:49 49.58380 -123.64886 15581 ft 347 kts 166°
2026-05-03 20:49 49.56058 -123.64061 14920 ft 335 kts 166°
2026-05-03 20:49 49.53829 -123.63270 14238 ft 325 kts 166°
2026-05-03 20:49 49.51626 -123.62488 13861 ft 321 kts 166°
2026-05-03 20:50 49.49460 -123.61718 13496 ft 318 kts 166°
2026-05-03 20:50 49.47317 -123.60957 13148 ft 313 kts 166°
2026-05-03 20:50 49.45210 -123.60209 12822 ft 309 kts 166°
2026-05-03 20:50 49.43130 -123.59472 12480 ft 305 kts 166°
2026-05-03 20:51 49.41076 -123.58746 12166 ft 301 kts 166°
2026-05-03 20:51 49.39045 -123.58027 11864 ft 299 kts 166°
2026-05-03 20:51 49.37033 -123.57218 11626 ft 300 kts 156°
2026-05-03 20:51 49.35341 -123.55372 11359 ft 302 kts 127°
2026-05-03 20:52 49.34382 -123.52546 11141 ft 299 kts 103°
2026-05-03 20:52 49.34020 -123.49464 11094 ft 292 kts 97°
2026-05-03 20:52 49.33716 -123.46384 11048 ft 294 kts 97°
2026-05-03 20:52 49.33407 -123.43277 11001 ft 295 kts 97°
2026-05-03 20:53 49.33096 -123.40217 11003 ft 293 kts 97°
2026-05-03 20:53 49.32777 -123.37138 11003 ft 291 kts 97°
2026-05-03 20:53 49.32461 -123.34119 10993 ft 282 kts 97°
2026-05-03 20:53 49.32154 -123.31209 10973 ft 271 kts 97°
2026-05-03 20:54 49.31954 -123.29310 10987 ft 263 kts 97°
2026-05-03 20:54 49.31288 -123.23009 10957 ft 257 kts 97°
2026-05-03 20:54 49.31000 -123.20302 10737 ft 257 kts 98°
2026-05-03 20:55 49.30713 -123.17611 10401 ft 254 kts 98°
2026-05-03 20:55 49.30427 -123.14948 10063 ft 252 kts 98°
2026-05-03 20:55 49.30145 -123.12307 9696 ft 251 kts 98°
2026-05-03 20:55 49.29864 -123.09674 9305 ft 250 kts 98°
2026-05-03 20:56 49.29580 -123.07044 8923 ft 249 kts 98°
2026-05-03 20:56 49.29297 -123.04429 8527 ft 249 kts 98°
2026-05-03 20:56 49.29110 -123.02702 8288 ft 248 kts 98°
2026-05-03 20:56 49.28829 -123.00112 7949 ft 246 kts 98°
2026-05-03 20:57 49.28490 -122.97558 7614 ft 244 kts 103°
2026-05-03 20:57 49.28046 -122.95060 7302 ft 241 kts 104°
2026-05-03 20:57 49.27601 -122.92636 7027 ft 234 kts 104°
2026-05-03 20:57 49.27164 -122.90253 6656 ft 231 kts 104°
2026-05-03 20:58 49.26737 -122.87880 6272 ft 231 kts 104°
2026-05-03 20:58 49.26318 -122.85515 5934 ft 230 kts 104°
2026-05-03 20:58 49.25899 -122.83169 5702 ft 228 kts 104°
2026-05-03 20:58 49.25481 -122.80828 5421 ft 228 kts 104°
2026-05-03 20:59 49.25061 -122.78480 5170 ft 229 kts 104°
2026-05-03 20:59 49.24691 -122.76146 5043 ft 222 kts 101°
2026-05-03 20:59 49.24419 -122.73808 5004 ft 225 kts 99°
2026-05-03 20:59 49.24116 -122.71442 4977 ft 228 kts 110°
2026-05-03 21:00 49.23220 -122.69468 4869 ft 229 kts 143°
2026-05-03 21:00 49.22298 -122.68714 4733 ft 228 kts 165°
2026-05-03 21:00 49.20238 -122.68594 4368 ft 225 kts 184°
2026-05-03 21:00 49.18672 -122.68793 4117 ft 228 kts 185°
2026-05-03 21:01 49.17112 -122.69233 3860 ft 230 kts 205°
2026-05-03 21:01 49.15902 -122.70762 3726 ft 224 kts 241°
2026-05-03 21:01 49.15516 -122.72959 3814 ft 213 kts 272°
2026-05-03 21:01 49.15563 -122.75215 3929 ft 215 kts 273°
2026-05-03 21:02 49.15693 -122.77517 3862 ft 220 kts 279°
2026-05-03 21:02 49.15931 -122.79817 3713 ft 216 kts 280°
2026-05-03 21:02 49.16186 -122.82041 3566 ft 209 kts 280°
2026-05-03 21:02 49.16435 -122.84209 3457 ft 206 kts 280°
2026-05-03 21:03 49.16683 -122.86372 3321 ft 207 kts 280°
2026-05-03 21:03 49.16929 -122.88548 3204 ft 209 kts 280°
2026-05-03 21:03 49.17177 -122.90728 3115 ft 204 kts 280°
2026-05-03 21:03 49.17414 -122.92805 3006 ft 195 kts 280°
2026-05-03 21:04 49.17644 -122.94839 2751 ft 192 kts 280°
2026-05-03 21:04 49.17873 -122.96839 2505 ft 190 kts 280°
2026-05-03 21:04 49.18099 -122.98821 2278 ft 189 kts 280°
2026-05-03 21:04 49.18324 -123.00796 2015 ft 187 kts 279°
2026-05-03 21:05 49.18545 -123.02728 1758 ft 182 kts 279°
2026-05-03 21:05 49.18754 -123.04583 1568 ft 170 kts 278°
2026-05-03 21:05 49.18947 -123.06323 1300 ft 158 kts 279°
2026-05-03 21:05 49.19157 -123.07881 1122 ft 145 kts 279°
2026-05-03 21:06 49.19318 -123.09377 945 ft 140 kts 277°
2026-05-03 21:06 49.19454 -123.10820 704 ft 136 kts 277°
2026-05-03 21:06 49.19639 -123.12236 520 ft 136 kts 281°
2026-05-03 21:06 49.19774 -123.13653 360 ft 135 kts 281°
2026-05-03 21:07 49.19947 -123.15081 182 ft 138 kts 282°
2026-05-03 21:07 49.20111 -123.16536 45 ft 140 kts 281°
2026-05-03 21:07 49.20263 -123.17861 28 ft 106 kts 281°
2026-05-03 21:07 49.20358 -123.18695 30 ft 53 kts 280°
2026-05-03 21:08 49.20395 -123.19110 30 ft 36 kts 266°
2026-05-03 21:08 49.20330 -123.19446 27 ft 24 kts 250°
2026-05-03 21:08 49.20298 -123.19578 27 ft 2 kts 249°
2026-05-03 21:08 49.20294 -123.19594 27 ft 0 kts 248°
2026-05-03 21:09 49.20290 -123.19605 27 ft 4 kts 233°
2026-05-03 21:09 49.20264 -123.19603 27 ft 4 kts 145°
2026-05-03 21:10 49.20243 -123.19553 27 ft 8 kts 113°
2026-05-03 21:10 49.20227 -123.19441 27 ft 14 kts 100°
2026-05-03 21:10 49.20208 -123.19267 27 ft 19 kts 99°
2026-05-03 21:10 49.20185 -123.19070 27 ft 19 kts 100°
2026-05-03 21:11 49.20162 -123.18862 27 ft 20 kts 99°
2026-05-03 21:11 49.20140 -123.18658 27 ft 13 kts 99°
2026-05-03 21:11 49.20119 -123.18534 44 ft 11 kts 126°
2026-05-03 21:11 49.20045 -123.18523 27 ft 12 kts 190°
2026-05-03 21:12 49.19962 -123.18544 27 ft 13 kts 189°
2026-05-03 21:12 49.19873 -123.18566 27 ft 13 kts 189°
2026-05-03 21:12 49.19784 -123.18535 27 ft 15 kts 131°
2026-05-03 21:12 49.19758 -123.18381 27 ft 15 kts 99°
2026-05-03 21:13 49.19740 -123.18223 27 ft 15 kts 105°
2026-05-03 21:13 49.19689 -123.18109 26 ft 10 kts 132°
2026-05-03 21:13 49.19664 -123.18035 27 ft 8 kts 91°
2026-05-03 21:13 49.19669 -123.17970 27 ft 3 kts 79°
2026-05-03 21:14 49.19677 -123.17942 27 ft 3 kts 57°
2026-05-03 21:14 49.19684 -123.17928 27 ft 1 kts 52°
2026-05-03 21:14 49.19685 -123.17927 27 ft 0 kts 52°